• In Deutschland
  • Länderverzeichnis
  • Für 7 Tage
  • Wassertemperatur
  • Satellitenkarten
  • Wetterkarte
  • Widgets
  • user-avatar
    Anmelden

    Stündliche Wetter Selcy

    Heute, 24 Oktober, Mittwoch

    Zeit Temperatur Niederschläge Wind Luftdruck Luftfeuchtigkeit
    00:00 +2°C° 0.5 mm 5 m/S 733 mmHg 86%
    01:00 +2°C° 0.5 mm 5 m/S 732 mmHg 87%
    02:00 +2°C° 0.5 mm 5 m/S 732 mmHg 87%
    03:00 +2°C° 0.4 mm 5 m/S 732 mmHg 88%
    04:00 +2°C° 0.4 mm 5 m/S 732 mmHg 88%
    05:00 +2°C° 0.4 mm 5 m/S 732 mmHg 89%
    06:00 +2°C° 0.3 mm 5 m/S 732 mmHg 89%
    07:00 +2°C° 0.3 mm 5 m/S 733 mmHg 89%
    08:00 +2°C° 0.3 mm 5 m/S 733 mmHg 88%
    09:00 +3°C° 0.2 mm 5 m/S 734 mmHg 87%
    10:00 +3°C° 0.2 mm 5 m/S 735 mmHg 86%
    11:00 +3°C° 0.2 mm 5 m/S 736 mmHg 84%
    12:00 +3°C° 0.2 mm 5 m/S 736 mmHg 83%
    13:00 +5°C° 0.2 mm 5 m/S 737 mmHg 82%
    14:00 +5°C° 0.2 mm 5 m/S 738 mmHg 81%
    15:00 +3°C° 0.1 mm 5 m/S 739 mmHg 81%
    16:00 +3°C° 0.1 mm 5 m/S 739 mmHg 81%
    17:00 +3°C° 0.1 mm 5 m/S 740 mmHg 81%
    18:00 +2°C° 0 mm 5 m/S 741 mmHg 83%
    19:00 +3°C° 0 mm 4 m/S 741 mmHg 84%
    20:00 +1°C° 0 mm 4 m/S 742 mmHg 86%
    21:00 +1°C° 0 mm 4 m/S 742 mmHg 87%
    22:00 +2°C° 0 mm 3 m/S 743 mmHg 88%
    23:00 +2°C° 0 mm 3 m/S 743 mmHg 90%

    Morgen, 25 Oktober, Donnerstag

    Zeit Temperatur Niederschläge Wind Luftdruck Luftfeuchtigkeit
    00:00 +2°C° 0 mm 3 m/S 743 mmHg 90%
    01:00 +2°C° 0 mm 3 m/S 743 mmHg 91%
    02:00 +2°C° 0 mm 3 m/S 743 mmHg 92%
    03:00 +1°C° 0.1 mm 3 m/S 743 mmHg 92%
    04:00 +1°C° 0.1 mm 3 m/S 743 mmHg 92%
    05:00 +1°C° 0.1 mm 3 m/S 743 mmHg 92%
    06:00 +1°C° 0.1 mm 3 m/S 743 mmHg 92%
    07:00 +1°C° 0.1 mm 3 m/S 743 mmHg 91%
    08:00 +1°C° 0.1 mm 3 m/S 742 mmHg 91%
    09:00 +2°C° 0 mm 3 m/S 742 mmHg 86%
    10:00 +4°C° 0 mm 2 m/S 742 mmHg 81%
    11:00 +5°C° 0 mm 2 m/S 742 mmHg 77%
    12:00 +6°C° 0 mm 2 m/S 742 mmHg 75%
    13:00 +6°C° 0 mm 2 m/S 741 mmHg 74%
    14:00 +7°C° 0 mm 1 m/S 741 mmHg 72%
    15:00 +6°C° 0.1 mm 1 m/S 741 mmHg 76%
    16:00 +6°C° 0.1 mm 1 m/S 741 mmHg 81%
    17:00 +5°C° 0.1 mm 1 m/S 741 mmHg 85%
    18:00 +4°C° 0.1 mm 2 m/S 741 mmHg 86%
    19:00 +3°C° 0.1 mm 2 m/S 741 mmHg 88%
    20:00 +3°C° 0.1 mm 2 m/S 741 mmHg 89%
    21:00 +3°C° 0.1 mm 2 m/S 741 mmHg 89%
    22:00 +3°C° 0.1 mm 2 m/S 741 mmHg 89%
    23:00 +2°C° 0.1 mm 3 m/S 741 mmHg 89%

    übermorgen, 26 Oktober, Freitag

    Zeit Temperatur Niederschläge Wind Luftdruck Luftfeuchtigkeit
    00:00 +2°C° 0.1 mm 3 m/S 741 mmHg 89%
    01:00 +1°C° 0.1 mm 3 m/S 741 mmHg 90%
    02:00 +1°C° 0.1 mm 3 m/S 742 mmHg 91%
    03:00 +1°C° 0.1 mm 3 m/S 742 mmHg 92%
    04:00 +1°C° 0.1 mm 3 m/S 742 mmHg 92%
    05:00 +1°C° 0.1 mm 3 m/S 742 mmHg 93%
    06:00 +1°C° 0 mm 3 m/S 742 mmHg 93%
    07:00 +1°C° 0 mm 3 m/S 742 mmHg 93%
    08:00 +1°C° 0 mm 3 m/S 742 mmHg 93%
    09:00 +2°C° 0 mm 3 m/S 743 mmHg 88%
    10:00 +3°C° 0 mm 3 m/S 743 mmHg 83%
    11:00 +4°C° 0 mm 3 m/S 743 mmHg 79%
    12:00 +4°C° 0.1 mm 3 m/S 743 mmHg 77%
    13:00 +5°C° 0.1 mm 3 m/S 743 mmHg 75%
    14:00 +5°C° 0.1 mm 3 m/S 743 mmHg 73%
    15:00 +4°C° 0.1 mm 3 m/S 744 mmHg 78%
    16:00 +4°C° 0.1 mm 3 m/S 744 mmHg 82%
    17:00 +4°C° 0.1 mm 2 m/S 744 mmHg 87%
    18:00 +3°C° 0.1 mm 2 m/S 744 mmHg 88%
    19:00 +3°C° 0.1 mm 2 m/S 744 mmHg 90%
    20:00 +3°C° 0.1 mm 2 m/S 744 mmHg 91%
    21:00 +3°C° 0 mm 2 m/S 743 mmHg 91%
    22:00 +3°C° 0 mm 2 m/S 743 mmHg 92%
    23:00 +3°C° 0 mm 2 m/S 743 mmHg 93%

    27 Oktober, Samstag

    Zeit Temperatur Niederschläge Wind Luftdruck Luftfeuchtigkeit
    00:00 +3°C° 0.4 mm 2 m/S 742 mmHg 92%
    01:00 +2°C° 0.4 mm 3 m/S 741 mmHg 91%
    02:00 +1°C° 0.4 mm 4 m/S 740 mmHg 90%
    03:00 +1°C° 1.7 mm 5 m/S 739 mmHg 90%
    04:00 +1°C° 1.7 mm 5 m/S 738 mmHg 89%
    05:00 +1°C° 1.7 mm 6 m/S 737 mmHg 89%
    06:00 +1°C° 0.7 mm 6 m/S 737 mmHg 89%
    07:00 0°C° 0.7 mm 7 m/S 737 mmHg 88%
    08:00 0°C° 0.7 mm 7 m/S 736 mmHg 88%
    09:00 0°C° 0.6 mm 7 m/S 737 mmHg 87%
    10:00 0°C° 0.6 mm 7 m/S 737 mmHg 85%
    11:00 0°C° 0.6 mm 7 m/S 738 mmHg 84%
    12:00 0°C° 0.3 mm 7 m/S 739 mmHg 81%
    13:00 0°C° 0.3 mm 7 m/S 740 mmHg 79%
    14:00 +1°C° 0.3 mm 6 m/S 742 mmHg 77%
    15:00 +1°C° 0 mm 6 m/S 743 mmHg 78%
    16:00 0°C° 0 mm 5 m/S 744 mmHg 80%
    17:00 0°C° 0 mm 5 m/S 745 mmHg 82%
    18:00 0°C° 0 mm 4 m/S 746 mmHg 84%
    19:00 -1°C° 0 mm 4 m/S 747 mmHg 86%
    20:00 -1°C° 0 mm 4 m/S 748 mmHg 88%
    21:00 -1°C° 0 mm 3 m/S 749 mmHg 89%
    22:00 -1°C° 0 mm 3 m/S 750 mmHg 90%
    23:00 -2°C° 0 mm 3 m/S 751 mmHg 91%

    28 Oktober, Sonntag

    Zeit Temperatur Niederschläge Wind Luftdruck Luftfeuchtigkeit
    00:00 -2°C° 0 mm 3 m/S 752 mmHg 91%
    01:00 -2°C° 0 mm 3 m/S 752 mmHg 91%
    02:00 -2°C° 0 mm 3 m/S 753 mmHg 91%
    03:00 -2°C° 0 mm 3 m/S 754 mmHg 91%
    04:00 -2°C° 0 mm 3 m/S 754 mmHg 90%
    05:00 -2°C° 0 mm 3 m/S 755 mmHg 90%
    06:00 -2°C° 0 mm 3 m/S 756 mmHg 89%
    07:00 -2°C° 0 mm 3 m/S 757 mmHg 88%
    08:00 -2°C° 0 mm 3 m/S 757 mmHg 87%
    09:00 -1°C° 0 mm 3 m/S 758 mmHg 83%
    10:00 0°C° 0 mm 3 m/S 759 mmHg 78%
    11:00 +1°C° 0 mm 3 m/S 760 mmHg 74%
    12:00 +2°C° 0.1 mm 3 m/S 760 mmHg 73%
    13:00 +2°C° 0.1 mm 3 m/S 761 mmHg 71%
    14:00 +2°C° 0.1 mm 3 m/S 761 mmHg 70%
    15:00 +1°C° 0.1 mm 3 m/S 762 mmHg 74%
    16:00 0°C° 0.1 mm 3 m/S 762 mmHg 79%
    17:00 -1°C° 0.1 mm 2 m/S 763 mmHg 83%
    18:00 -2°C° 0 mm 2 m/S 763 mmHg 84%
    19:00 -2°C° 0 mm 2 m/S 764 mmHg 85%
    20:00 -2°C° 0 mm 2 m/S 764 mmHg 86%
    21:00 -2°C° 0 mm 2 m/S 765 mmHg 87%
    22:00 -3°C° 0 mm 2 m/S 765 mmHg 87%
    23:00 -3°C° 0 mm 2 m/S 766 mmHg 87%

    29 Oktober, Montag

    Zeit Temperatur Niederschläge Wind Luftdruck Luftfeuchtigkeit
    00:00 -3°C° 0 mm 2 m/S 766 mmHg 87%
    01:00 -1°C° 0 mm 1 m/S 766 mmHg 87%
    02:00 -1°C° 0 mm 1 m/S 767 mmHg 86%
    03:00 -1°C° 0 mm 1 m/S 767 mmHg 86%
    04:00 -1°C° 0 mm 1 m/S 767 mmHg 86%
    05:00 -1°C° 0 mm 1 m/S 767 mmHg 86%
    06:00 0°C° 0 mm 1 m/S 767 mmHg 86%
    07:00 0°C° 0 mm 1 m/S 767 mmHg 86%
    08:00 -2°C° 0 mm 2 m/S 767 mmHg 86%
    09:00 -1°C° 0 mm 2 m/S 767 mmHg 83%
    10:00 -1°C° 0 mm 2 m/S 767 mmHg 79%
    11:00 0°C° 0 mm 3 m/S 767 mmHg 76%
    12:00 0°C° 0 mm 3 m/S 767 mmHg 75%
    13:00 0°C° 0 mm 3 m/S 767 mmHg 73%
    14:00 0°C° 0 mm 3 m/S 767 mmHg 72%
    15:00 -1°C° 0 mm 4 m/S 767 mmHg 73%
    16:00 -2°C° 0 mm 4 m/S 767 mmHg 75%
    17:00 -2°C° 0 mm 4 m/S 767 mmHg 76%
    18:00 -4°C° 0 mm 5 m/S 767 mmHg 74%
    19:00 -4°C° 0 mm 5 m/S 767 mmHg 72%
    20:00 -4°C° 0 mm 5 m/S 767 mmHg 70%
    21:00 -4°C° 0 mm 6 m/S 767 mmHg 71%
    22:00 -4°C° 0 mm 6 m/S 767 mmHg 73%
    23:00 -4°C° 0 mm 6 m/S 767 mmHg 74%

    30 Oktober, Dienstag

    Zeit Temperatur Niederschläge Wind Luftdruck Luftfeuchtigkeit
    00:00 -4°C° 0 mm 6 m/S 767 mmHg 75%
    01:00 -4°C° 0 mm 7 m/S 767 mmHg 75%
    02:00 -4°C° 0 mm 7 m/S 767 mmHg 76%
    03:00 -4°C° 0 mm 7 m/S 766 mmHg 74%
    04:00 -4°C° 0 mm 7 m/S 766 mmHg 72%
    05:00 -4°C° 0 mm 7 m/S 766 mmHg 70%
    06:00 -5°C° 0 mm 8 m/S 766 mmHg 69%
    07:00 -5°C° 0 mm 8 m/S 766 mmHg 69%
    08:00 -5°C° 0 mm 8 m/S 766 mmHg 68%
    09:00 -5°C° 0 mm 8 m/S 766 mmHg 69%
    10:00 -4°C° 0 mm 8 m/S 767 mmHg 70%
    11:00 -4°C° 0 mm 8 m/S 767 mmHg 71%
    12:00 -4°C° 0 mm 8 m/S 767 mmHg 72%
    13:00 -2°C° 0 mm 8 m/S 766 mmHg 73%
    14:00 -2°C° 0 mm 8 m/S 766 mmHg 73%
    15:00 -2°C° 0 mm 8 m/S 766 mmHg 75%
    16:00 -2°C° 0 mm 8 m/S 767 mmHg 77%
    17:00 -2°C° 0 mm 8 m/S 767 mmHg 79%
    18:00 -2°C° 0 mm 8 m/S 767 mmHg 79%
    19:00 -2°C° 0 mm 8 m/S 767 mmHg 79%
    20:00 -2°C° 0 mm 8 m/S 766 mmHg 79%
    21:00 -2°C° 0 mm 8 m/S 766 mmHg 79%
    22:00 -2°C° 0 mm 8 m/S 767 mmHg 80%
    23:00 -2°C° 0 mm 7 m/S 767 mmHg 80%
    Mehr zeigen